FW8418 Weather Reports


time (UTC)temp
C
wind
direction
speed
KPH
gust
KPH
rain 1hr
cm
rain 24hr
cm
rain mn
cm
humidity
%
barometer
mb
20260503184547 15 250 16.1 41.8 0.00 0.00 0.00 42 1011.0
20260503183046 16 182 14.5 48.3 0.00 0.00 0.00 43 1011.1
20260503181617 16 205 14.5 48.3 0.00 0.00 0.00 41 1011.4
20260503180120 15 258 14.5 38.6 0.00 0.00 0.00 43 1011.7
20260503174557 15 229 17.7 41.8 0.00 0.00 0.00 43 1011.9
20260503173053 15 261 8.0 41.8 0.00 0.00 0.00 45 1012.1
20260503171548 15 187 9.7 25.7 0.00 0.00 0.00 47 1012.2
20260503120106 6 279 6.4 17.7 0.00 0.00 0.00 61 1013.8
20260503100104 3 209 4.8 14.5 0.00 0.00 0.00 63 1013.8
20260503081550 2 188 3.2 9.7 0.00 0.00 0.00 63 1014.6
20260503071554 3 183 3.2 9.7 0.00 0.00 0.00 59 1014.7
20260503060111 4 0 3.2 11.3 0.00 0.00 0.00 54 1015.4
20260503054547 4 220 1.6 11.3 0.00 0.00 0.00 54 1015.6
20260503053046 4 232 3.2 11.3 0.00 0.00 0.00 54 1015.7
20260503051548 4 240 4.8 16.1 0.00 0.00 0.00 55 1015.7
20260503050049 4 229 4.8 12.9 0.00 0.00 0.00 56 1015.8
20260503044618 4 192 3.2 12.9 0.00 0.00 0.00 57 1015.8
20260503043046 4 257 4.8 12.9 0.00 0.00 0.00 57 1015.8
20260503041553 4 253 3.2 11.3 0.00 0.00 0.00 57 1015.9
20260503040058 5 222 4.8 16.1 0.00 0.00 0.00 56 1016.0
20260503034556 5 244 4.8 12.9 0.00 0.00 0.00 57 1016.1
20260503033049 5 243 4.8 12.9 0.00 0.00 0.00 57 1016.0
20260503031549 5 251 3.2 12.9 0.00 0.00 0.00 58 1016.2
20260503030045 5 211 3.2 12.9 0.00 0.00 0.00 59 1016.2
20260503024557 5 229 3.2 8.0 0.00 0.00 0.00 58 1016.3
20260503023050 5 219 3.2 14.5 0.00 0.00 0.00 57 1016.3
20260503021550 5 245 1.6 11.3 0.00 0.00 0.00 57 1016.3
20260503020049 5 219 1.6 11.3 0.00 0.00 0.00 57 1016.1
20260503014554 5 228 3.2 8.0 0.00 0.00 0.00 57 1016.2
20260503013045 5 234 1.6 4.8 0.00 0.00 0.00 57 1016.0
20260503011552 6 234 1.6 4.8 0.00 0.00 0.00 54 1016.0
20260503010052 6 0 1.6 6.4 0.00 0.00 0.00 52 1016.0
20260503004553 7 233 0.0 6.4 0.00 0.00 0.00 51 1015.9
20260503003053 7 263 1.6 6.4 0.00 0.00 0.00 50 1015.9
20260503001551 7 263 1.6 12.9 0.00 0.00 0.00 50 1015.8
20260503000050 8 278 3.2 17.7 0.00 0.00 0.00 49 1015.8
20260502234601 8 267 6.4 16.1 0.00 0.00 0.00 49 1015.7
20260502233050 8 296 3.2 12.9 0.00 0.00 0.00 51 1015.9
20260502231549 7 265 4.8 14.5 0.00 0.00 0.00 51 1015.9
20260502230047 7 315 6.4 14.5 0.00 0.00 0.00 51 1016.1
20260502224545 7 302 6.4 14.5 0.00 0.00 0.00 51 1016.0
20260502223056 7 298 4.8 17.7 0.00 0.00 0.00 50 1016.0
20260502221548 7 289 6.4 19.3 0.00 0.00 0.00 50 1016.1
20260502220059 7 298 8.0 19.3 0.00 0.00 0.00 50 1015.9
20260502214605 7 311 4.8 14.5 0.00 0.00 0.00 50 1016.1
20260502213104 7 309 9.7 22.5 0.00 0.00 0.00 48 1016.1
20260502211557 7 300 8.0 19.3 0.00 0.00 0.00 50 1016.1
20260502210048 8 305 12.9 24.1 0.00 0.00 0.00 47 1016.2
20260502204543 8 303 9.7 19.3 0.00 0.00 0.00 52 1016.2
20260502203109 7 314 8.0 20.9 0.00 0.00 0.00 50 1016.3
20260502201547 7 296 11.3 22.5 0.00 0.00 0.00 49 1016.5
20260502200054 7 253 8.0 22.5 0.00 0.00 0.00 49 1016.6
20260502194544 7 318 9.7 32.2 0.00 0.00 0.00 47 1016.8
20260502193047 7 313 9.7 22.5 0.00 0.00 0.00 49 1016.8
20260502191547 8 290 8.0 24.1 0.00 0.00 0.00 47 1017.0
20260502190049 7 312 17.7 29.0 0.00 0.00 0.00 47 1017.1